Showing default

COSMOS 1912, 18791

Orbit data source: Space-Track

COSMOS 1912, 18791 is a payload satellite owned by UNKS (CIS) in LEO that was launched on Fri, 15 Jan 1988 UTC via a TSIKLON-3 launch vehicle from the Plesetsk Missile And Space Complex (PKMTR). Payload-class satellites include a variety of spacecraft equipped with specific instruments for various scientific and technological missions. These include communications satellites like Starlink; space stations such as the ISS; scientific satellites like the Hubble; Earth observation satellites from companies like Planet Labs, Umbra, and HawkEye 360; GPS; miniature CubeSats for education and research; and military/defense satellites.

Loading next visibility...
Identifier
18791, 1988-002D
Orbit
LEO
Country
Flag of CISCIS
Related business
Manufacturer
NPO PM
Mission
Defense Communications
Bus & Motor
STRELA-3, Unknown motor
Mass
225 kg wet, 225 kg dry
Launch date (UTC)
1988-01-15 (38 years ago)
Launch vehicle
TSIKLON-3
Launch site
Plesetsk Missile And Space Complex (PKMTR)
Object type
Payload
Rocket body
Debris
Shape & HBR
Cyl, 0.8 m
Radar Cross Section
1.257 m², Large (>1 m²)

Expand to show TLE details & history
Last TLE update: 7 hours ago

TLE from 7 hours ago
0 COSMOS 1912
1 18791U 88002D   25353.78284154  .00000022  00000-0  60986-4 0  9998
2 18791  82.6098 353.1187 0011149 145.3376  27.4699 12.65065528751206
Epoch: 2025-12-19T18:47Z
TLE epoch observation values (Epoch: 2025-12-19T18:47:17.509Z)
Latitude
7.00563°
Longitude
161.76797°
Altitude
1,396.512 km
Speed
7.166 km/s
True Right ascension
11h 28m 50s
True Declination
6° 58' 03"
Sunlit
Object was in daylight at epoch
Visualization orbit readout
Latitude
Unknown
Longitude
Unknown
Altitude
Unknown
Speed
Unknown
Apparent Right ascension
Unknown
Apparent Declination
Unknown
Sunlit
N/A
Visualization observer readout
Local Sidereal Time
01:03:35
Azimuth
Unknown
Elevation
Unknown
Doppler factor
Unknown
Orbital elements
Apogee altitude
1,408.093 km
Perigee altitude
1,390.75 km
Semi-major axis
7,777.559 km
Eccentricity
0.00111
Inclination
82.6098°
RAAN
353.1187°
Arg. of periapsis
145.3376°
True anomaly
27.52891°
Mean anomaly
27.4699°
Eccentric anomaly
27.4994°
Mean motion
3.1643 °/min
Orbital period
113.77 mins
BSTAR
0.000060986
Loading maneuver chart data...
Computing Atmospheric mass density...
Loading historical data...
Loading historical data...
Loading historical data...
Loading historical data...
Loading historical data...
Loading historical data...
Loading historical data...

Documentation

Showing up to 5 results
|